Location: Bartshausen
(51.8454°N, 9.8167°E)
Time: 02:12:20
(UTC+00:00)

Cosmos 1862 Rocket - Pass Details

Date: 08 November 2025
Orbit: 598 x 625 km, 82.5° (Epoch: 13 December)

Event Time Altitude Azimuth Distance (km) Brightness Sun altitude
Exits shadow 04:15:10 36° 330° (NNW) 959 4.2 -20.6°
Drops below altitude 10° 04:18:08 10° 0° (N) 1,953 6.1 -20.1°
Sets 04:20:26 0° 7° (N) 2,862 7.0 -19.8°
